#timestamp,LO_Frequency,Hit,StdDev 
1581764415.6,286046998.6,N
1581764435.5,286046997.5,N
1581764455.3,286046994.9,Y
1581764475.1,286046997.6,P
1581764495.9,286046997.3,N
1581764515.7,286046996.5,P
1581764535.5,286047000.6,N
1581764555.4,286046999.7,N
1581764575.2,286047000.6,N
1581764595.1,286047002.5,N
1581764596.0,286047002.5,N
1581764615.8,286047002.3,N
1581764635.6,286047000.3,N
1581764655.5,286047002.1,N
1581764675.3,286047000.2,N
1581764695.1,286047001.3,N
1581764715.9,286047000.0,N
1581764735.7,286046998.6,N
1581764755.6,286046999.8,N
1581764775.4,286047002.6,N
1581764795.2,286047000.1,N
1581764815.1,286047001.0,N
1581764816.0,286047001.0,N
1581764835.8,286046998.5,N
1581764855.6,286046998.6,N
1581764875.5,286046999.4,N
1581764895.3,286046997.1,N
1581764915.2,286046996.7,N
1581764935.9,286046999.4,N
1581764955.7,286046999.2,N
1581764975.6,286046997.4,N
1581764995.4,286046997.6,N
1581765015.2,286046995.0,N
1581765035.1,286046998.0,N
1581765036.0,286046998.0,N
1581765055.8,286046995.6,N
1581765075.7,286046994.9,N
1581765095.5,286046997.4,N
1581765115.3,286046996.9,N
1581765135.2,286046995.3,N
1581765155.0,286046997.1,N
1581765155.9,286046997.1,N
1581765175.8,286046996.9,N
1581765195.6,286046997.1,N
1581765215.4,286046997.1,N
1581765235.3,286046996.6,N
1581765255.1,286046999.4,N
1581765275.8,286047001.0,N
1581765295.7,286046996.8,N
1581765315.5,286046997.6,N
1581765335.4,286046997.4,N
1581765355.2,286046997.3,N
1581765375.0,286046997.1,N
1581765375.9,286046997.1,N
1581765395.8,286046999.0,N
1581765415.6,286046998.6,N
1581765435.5,286046998.7,N
1581765455.3,286047002.2,N
1581765475.1,286047001.7,N
1581765495.9,286047000.9,N
1581765515.7,286046997.5,N
1581765535.6,286046999.2,N
1581765555.4,286046998.4,N
1581765575.2,286046997.8,N
1581765595.1,286046997.5,N
1581765596.0,286046997.5,N
1581765615.8,286046997.4,N
1581765635.7,286046997.1,N
1581765655.5,286046995.0,Y
1581765675.3,286046999.5,P
1581765695.2,286046998.7,N
1581765715.0,286046998.5,N
1581765715.9,286046998.5,N
1581765735.8,286047002.5,Y
1581765755.6,286047000.2,P
1581765775.4,286047002.7,P
1581765795.3,286047002.8,N
1581765815.1,286047001.0,N
1581765835.8,286047001.0,N
1581765855.7,286047001.1,N
1581765875.5,286047000.0,N
1581765895.4,286047001.0,N
1581765915.2,286047001.0,N
1581765935.0,286047002.4,N
1581765935.9,286047002.4,N
1581765955.8,286047003.0,N
1581765975.6,286047005.2,Y
1581765995.5,286047002.5,P
1581766015.3,286047001.7,N
1581766035.2,286047003.3,P
1581766055.9,286047003.6,Y
1581766075.7,286047000.2,P
1581766095.6,286046998.7,N
1581766115.4,286046998.1,N
1581766135.2,286047000.0,N
1581766155.1,286046998.3,N
1581766156.0,286046998.3,N
1581766175.8,286047001.2,N
1581766195.7,286047000.9,N
1581766215.5,286046998.5,N
1581766235.3,286046999.1,N
1581766255.2,286046996.6,N
1581766275.0,286046998.9,N
1581766275.9,286046998.9,N
1581766295.8,286046999.6,N
1581766315.6,286046997.2,N
1581766335.4,286046996.7,N
1581766355.3,286046997.0,N
1581766375.1,286046997.7,N
1581766395.9,286046995.3,Y
1581766415.7,286047000.8,P
1581766435.5,286046998.6,N
1581766455.4,286046998.1,N
1581766475.2,286046998.8,N
1581766495.0,286046999.1,N
1581766495.9,286046999.1,N
1581766515.8,286046998.2,N
1581766535.6,286046998.2,N
1581766555.5,286046998.7,N
1581766575.3,286046998.2,N
1581766595.1,286047000.9,N
1581766615.9,286046998.6,N
1581766635.7,286046999.2,N
1581766685.6,286046996.8,E
1581766695.5,286046998.6,N
1581766715.4,286047000.2,P
1581766735.2,286047000.4,N
1581766755.0,286047003.4,Y
1581766755.9,286047003.4,P
1581766775.8,286047005.6,P
1581766795.6,286047004.2,N
1581766815.4,286047001.3,N
1581766835.3,286047004.4,N
1581766855.1,286047003.2,N
1581766875.9,286047001.6,N
1581766895.7,286047001.9,N
1581766915.5,286047004.3,N
1581766935.4,286047003.7,N
1581766955.2,286047001.3,N
1581766975.0,286047001.7,N
1581766976.0,286047001.7,N
1581766995.1,286047001.7,N
1581767015.9,286047002.3,N
1581767035.7,286047002.6,N
1581767055.5,286047002.4,N
1581767075.4,286047001.7,N
1581767095.2,286047001.7,N
1581767115.1,286047004.3,Y
1581767116.0,286047004.3,P
1581767135.8,286047000.7,N
1581767155.6,286046998.9,N
1581767175.5,286046996.6,N
1581767195.3,286046996.5,N
1581767215.2,286046999.0,N
1581767235.9,286046998.7,N
1581767255.7,286046998.1,N
1581767275.6,286046999.8,N
1581767295.4,286047002.7,N
1581767315.2,286047001.1,N
1581767335.1,286047001.0,N
1581767336.0,286047001.0,N
1581767355.8,286046998.3,N
1581767375.7,286047001.1,N
1581767395.5,286046998.9,N
1581767415.3,286046996.8,N
1581767435.2,286046997.7,N
1581767455.0,286046995.3,N
1581767455.9,286046995.3,N
1581767475.7,286046997.1,N
1581767495.6,286046997.8,N
1581767515.4,286046997.8,N
1581767535.3,286046996.2,N
1581767555.1,286046993.8,N
1581767556.0,286046993.8,N
1581767575.8,286046996.1,N
1581767595.7,286046996.1,N
1581767615.5,286046993.3,N
1581767635.3,286046995.6,N
1581767655.2,286046993.7,N
1581767675.0,286046994.0,N
1581767675.9,286046994.0,N
1581767695.8,286046993.8,N
1581767715.6,286046994.2,N
1581767735.4,286046994.3,N
1581767755.3,286046994.0,N
1581767775.1,286046992.2,N
1581767795.9,286046992.4,N
1581767815.7,286046992.9,N
1581767835.5,286046992.9,N
1581767855.4,286046993.1,N
1581767875.2,286046990.3,Y
1581767895.0,286046995.9,P
1581767895.9,286046995.9,P
1581767915.8,286046993.6,P
1581767935.6,286046994.2,Y
1581767955.5,286046996.6,P
1581767975.3,286046995.0,P
1581767995.1,286046997.7,P
